FW8987 Weather Reports


time (UTC)temp
C
wind
direction
speed
KPH
gust
KPH
rain 1hr
cm
rain 24hr
cm
rain mn
cm
humidity
%
barometer
mb
20260508105029 16 182 6.4 16.1 0.00 0.00 0.00 31 1025.3
20260508104024 16 162 4.8 11.3 0.00 0.00 0.00 30 1025.3
20260508103140 15 198 4.8 12.9 0.00 0.00 0.00 32 1025.3
20260508102034 15 212 4.8 12.9 0.00 0.00 0.00 32 1025.4
20260508101110 15 205 6.4 14.5 0.00 0.00 0.00 32 1025.5
20260508100026 15 212 6.4 14.5 0.00 0.00 0.00 32 1025.5
20260508095041 14 214 6.4 12.9 0.00 0.00 0.00 32 1025.6
20260508094036 15 179 3.2 6.4 0.00 0.00 0.00 31 1025.7
20260508093032 15 203 4.8 12.9 0.00 0.00 0.00 31 1025.7
20260508092046 15 193 4.8 11.3 0.00 0.00 0.00 31 1025.8
20260508091021 14 190 3.2 11.3 0.00 0.00 0.00 29 1025.8
20260508090037 13 190 6.4 12.9 0.00 0.00 0.00 28 1025.7
20260508085112 13 198 6.4 16.1 0.00 0.00 0.00 29 1025.8
20260508084028 13 202 4.8 9.7 0.00 0.00 0.00 29 1025.9
20260508083023 13 187 4.8 9.7 0.00 0.00 0.00 29 1025.9
20260508082038 13 189 6.4 12.9 0.00 0.00 0.00 29 1025.9
20260508081034 12 209 4.8 11.3 0.00 0.00 0.00 30 1026.0
20260508080030 12 198 3.2 6.4 0.00 0.00 0.00 33 1025.9
20260508075025 12 195 3.2 9.7 0.00 0.00 0.00 32 1025.9
20260508074020 11 207 4.8 9.7 0.00 0.00 0.00 31 1025.9
20260508073015 11 200 4.8 12.9 0.00 0.00 0.00 32 1025.9
20260508072031 11 187 3.2 9.7 0.00 0.00 0.00 36 1025.7
20260508071025 10 192 3.2 11.3 0.00 0.00 0.00 38 1025.8
20260508070021 10 157 4.8 11.3 0.00 0.00 0.00 39 1025.9
20260508065017 10 197 4.8 9.7 0.00 0.00 0.00 40 1025.8
20260508064052 9 167 1.6 3.2 0.00 0.00 0.00 59 1025.7
20260508063027 8 170 0.0 3.2 0.00 0.00 0.00 64 1025.7
20260508062022 7 170 0.0 1.6 0.00 0.00 0.00 69 1025.8
20260508061017 6 165 0.0 1.6 0.00 0.00 0.00 69 1025.7
20260508060033 6 159 0.0 3.2 0.00 0.00 0.00 71 1025.7
20260508055028 6 178 0.0 1.6 0.00 0.00 0.00 72 1025.6
20260508054023 4 204 1.6 3.2 0.00 0.00 0.00 76 1025.6
20260508053038 5 0.0 0.0 0.00 0.00 0.00 74 1025.4
20260508052033 3 0.0 0.0 0.00 0.00 0.00 77 1025.5
20260508051049 2 195 0.0 1.6 0.00 0.00 0.00 81 1025.4
20260508050025 1 0.0 0.0 0.00 0.00 0.00 82 1025.2
20260508045020 2 0.0 0.0 0.00 0.00 0.00 80 1025.1
20260508044020 0 0.0 0.0 0.00 0.00 0.00 88 1025.1
20260508043031 0 202 0.0 1.6 0.00 0.00 0.00 89 1025.0
20260508042027 0 0.0 0.0 0.00 0.00 0.00 87 1024.8
20260508041023 0 0.0 0.0 0.00 0.00 0.00 86 1024.9
20260508040017 0 0.0 0.0 0.00 0.00 0.00 92 1024.9
20260508035034 -1 0.0 0.0 0.00 0.00 0.00 97 1024.9
20260508034028 -3 0.0 0.0 0.00 0.00 0.00 97 1024.8
20260508033044 -3 0.0 0.0 0.00 0.00 0.00 97 1024.7
20260508032020 -3 0.0 0.0 0.00 0.00 0.00 97 1024.8
20260508031016 -3 0.0 0.0 0.00 0.00 0.00 97 1024.7
20260508030031 -3 0.0 0.0 0.00 0.00 0.00 97 1024.7
20260508025027 -3 0.0 0.0 0.00 0.00 0.00 96 1024.5
20260508024022 -3 0.0 0.0 0.00 0.00 0.00 96 1024.4
20260508023018 -3 0.0 0.0 0.00 0.00 0.00 96 1024.3
20260508022033 -2 0.0 0.0 0.00 0.00 0.00 96 1024.2
20260508021029 -3 0.0 0.0 0.00 0.00 0.00 95 1024.1
20260508020024 -3 0.0 0.0 0.00 0.00 0.00 95 1024.1
20260508015020 -2 0.0 0.0 0.00 0.00 0.00 95 1024.0
20260508014056 -2 0.0 0.0 0.00 0.00 0.00 94 1023.9
20260508013032 -1 210 0.0 1.6 0.00 0.00 0.00 94 1023.9
20260508012026 -1 210 0.0 1.6 0.00 0.00 0.00 94 1023.7
20260508011041 -2 212 0.0 3.2 0.00 0.00 0.00 95 1023.7
20260508010017 -2 210 0.0 1.6 0.00 0.00 0.00 95 1023.5
20260508005033 -2 0.0 0.0 0.00 0.00 0.00 94 1023.5
20260508004028 -2 0.0 0.0 0.00 0.00 0.00 93 1023.5
20260508003024 -2 0.0 0.0 0.00 0.00 0.00 92 1023.3
20260508002019 -1 0.0 0.0 0.00 0.00 0.00 91 1023.2
20260508001114 -1 210 0.0 1.6 0.00 0.00 0.00 92 1023.3
20260508000029 -1 202 0.0 1.6 0.00 0.00 0.00 92 1023.2
20260507235025 -1 0.0 0.0 0.00 0.00 0.00 92 1023.1
20260507234020 -1 200 0.0 1.6 0.00 0.00 0.00 93 1023.2
20260507233036 -1 0.0 0.0 0.00 0.00 0.00 93 1023.1
20260507232030 -1 0.0 0.0 0.00 0.00 0.00 93 1023.0
20260507231026 -1 0.0 0.0 0.00 0.00 0.00 92 1022.9
20260507230021 -1 0.0 0.0 0.00 0.00 0.00 92 1022.8
20260507225017 -1 194 0.0 1.6 0.00 0.00 0.00 92 1022.7
20260507224032 0 204 0.0 1.6 0.00 0.00 0.00 91 1022.6
20260507223048 0 187 0.0 1.6 0.00 0.00 0.00 91 1022.5
20260507222023 0 0.0 0.0 0.00 0.00 0.00 90 1022.5
20260507221019 0 0.0 0.0 0.00 0.00 0.00 89 1022.6
20260507220054 0 0.0 0.0 0.00 0.00 0.00 86 1022.4
20260507215030 1 190 0.0 1.6 0.00 0.00 0.00 86 1022.4
20260507214024 1 0.0 0.0 0.00 0.00 0.00 85 1022.3
20260507213020 1 0.0 0.0 0.00 0.00 0.00 84 1022.2
20260507212035 1 0.0 0.0 0.00 0.00 0.00 85 1022.0
20260507211031 1 0.0 0.0 0.00 0.00 0.00 86 1022.0
20260507210046 1 0.0 0.0 0.00 0.00 0.00 87 1021.8
20260507205021 1 0.0 0.0 0.00 0.00 0.00 86 1021.6
20260507204017 1 0.0 0.0 0.00 0.00 0.00 86 1021.5
20260507203032 1 0.0 0.0 0.00 0.00 0.00 84 1021.5
20260507202027 2 0.0 0.0 0.00 0.00 0.00 81 1021.4
20260507201043 2 0.0 0.0 0.00 0.00 0.00 80 1021.3
20260507200018 3 182 0.0 1.6 0.00 0.00 0.00 78 1021.1
20260507195054 3 0.0 0.0 0.00 0.00 0.00 74 1021.0
20260507194029 5 0.0 0.0 0.00 0.00 0.00 72 1021.0
20260507193024 5 175 0.0 1.6 0.00 0.00 0.00 69 1020.8
20260507192021 5 171 0.0 1.6 0.00 0.00 0.00 69 1020.5
20260507191035 6 172 0.0 1.6 0.00 0.00 0.00 67 1020.5
20260507190030 6 0.0 0.0 0.00 0.00 0.00 65 1020.2
20260507185027 6 132 1.6 4.8 0.00 0.00 0.00 63 1020.3
20260507184021 6 0.0 0.0 0.00 0.00 0.00 63 1020.1
20260507183037 7 147 1.6 3.2 0.00 0.00 0.00 60 1020.0
20260507182034 7 147 1.6 4.8 0.00 0.00 0.00 58 1019.9
20260507181027 7 156 1.6 4.8 0.00 0.00 0.00 57 1019.7
20260507180022 8 143 1.6 4.8 0.00 0.00 0.00 56 1019.6
20260507175018 8 120 3.2 11.3 0.00 0.00 0.00 56 1019.4
20260507174033 8 105 4.8 11.3 0.00 0.00 0.00 55 1019.4
20260507173028 8 75 4.8 12.9 0.00 0.00 0.00 56 1019.2
20260507172024 9 82 6.4 14.5 0.00 0.00 0.00 56 1019.1
20260507171024 10 107 4.8 9.7 0.00 0.00 0.00 53 1019.0
20260507170035 10 113 3.2 9.7 0.00 0.00 0.00 51 1018.9
20260507165030 10 92 4.8 11.3 0.00 0.00 0.00 50 1018.6
20260507164025 10 100 4.8 14.5 0.00 0.00 0.00 49 1018.5
20260507163020 10 96 8.0 20.9 0.00 0.00 0.00 48 1018.4
20260507162016 10 99 8.0 20.9 0.00 0.00 0.00 48 1018.3
20260507161032 11 99 6.4 20.9 0.00 0.00 0.00 49 1018.3
20260507160048 11 89 6.4 16.1 0.00 0.00 0.00 51 1018.2
20260507155023 11 83 9.7 24.1 0.00 0.00 0.00 51 1018.0
20260507154018 10 104 4.8 12.9 0.00 0.00 0.00 51 1017.8
20260507153034 11 95 6.4 17.7 0.00 0.00 0.00 50 1017.7
20260507152030 12 148 3.2 6.4 0.00 0.00 0.00 45 1017.6
20260507151045 13 164 3.2 12.9 0.00 0.00 0.00 43 1017.8
20260507150020 12 184 3.2 6.4 0.00 0.00 0.00 40 1017.7
20260507145035 13 175 1.6 3.2 0.00 0.00 0.00 40 1017.6
20260507144031 12 187 1.6 6.4 0.00 0.00 0.00 39 1017.6
20260507143026 13 174 3.2 11.3 0.00 0.00 0.00 40 1017.5
20260507142022 13 142 1.6 6.4 0.00 0.00 0.00 42 1017.3
20260507141017 12 124 3.2 9.7 0.00 0.00 0.00 42 1017.4
20260507140033 12 173 3.2 6.4 0.00 0.00 0.00 44 1017.3
20260507135109 12 156 3.2 6.4 0.00 0.00 0.00 44 1017.4
20260507134023 12 100 4.8 17.7 0.00 0.00 0.00 46 1017.4
20260507133019 12 67 6.4 14.5 0.00 0.00 0.00 46 1017.4
20260507132033 11 94 6.4 16.1 0.00 0.00 0.00 48 1017.4
20260507131029 11 77 4.8 11.3 0.00 0.00 0.00 48 1017.4
20260507130024 11 73 6.4 11.3 0.00 0.00 0.00 50 1017.4
20260507125019 11 91 4.8 9.7 0.00 0.00 0.00 50 1017.1
20260507124035 11 103 3.2 9.7 0.00 0.00 0.00 51 1017.0
20260507123029 11 88 4.8 11.3 0.00 0.00 0.00 50 1017.0
20260507122021 11 125 3.2 6.4 0.00 0.00 0.00 52 1017.0
20260507121016 10 91 6.4 14.5 0.00 0.00 0.00 56 1017.0
20260507120032 9 105 4.8 12.9 0.00 0.00 0.00 60 1017.0
20260507115047 9 100 4.8 11.3 0.00 0.00 0.00 60 1017.0
20260507114023 9 137 3.2 6.4 0.00 0.00 0.00 62 1016.8
20260507113018 8 167 3.2 4.8 0.00 0.00 0.00 61 1016.9
20260507112034 10 133 4.8 11.3 0.00 0.00 0.00 60 1016.9
20260507111049 10 114 4.8 14.5 0.00 0.00 0.00 56 1017.0
20260507110045 10 112 4.8 9.7 0.00 0.00 0.00 57 1017.0